Weather History for KPRO - December, 2012

Change the Weather History Date:

Tuesday, December 18, 2012

  Actual Average Record
Temperature  
Mean Temperature 30 °F -  
Max Temperature 33 °F 30 °F 59 °F (1962)
Min Temperature 27 °F 12 °F -19 °F (1985)
Degree Days  
Heating Degree Days 35    
Moisture  
Dew Point 30 °F    
Average Humidity 94    
Maximum Humidity 99    
Minimum Humidity 89    
Precipitation  
Precipitation 0.00 in - - ()
Sea Level Pressure  
Sea Level Pressure 29.66 in    
Wind  
Wind Speed 8 mph (WNW)    
Max Wind Speed 15 mph    
Max Gust Speed 25 mph    
Visibility 5 miles    
Events      
Averages and records for this station are not official NWS values.
T = Trace of Precipitation, MM = Missing Value Source: NWS Daily Summary

Daily Weather History Graph

Daily Weather History Graph

Search for Another Location

Airport or City:

Trip Planner

Search our weather history database for the weather conditions in past years. The results will help you decide how hot, cold, wet, or windy it might be!

Date:

Astronomy

Dec. 18, 2012 Rise Set
Actual Time 7:39 AM CST 4:47 PM CST
Civil Twilight 7:07 AM CST 5:19 PM CST
Nautical Twilight 6:32 AM CST 5:54 PM CST
Astronomical Twilight 5:58 AM CST 6:28 PM CST
Moon 11:14 AM CST (12/18) 11:19 PM CST (12/18)
Length of Visible Light 10h 11m
Length of Day
9h 08m
Waxing Crescent, 35% of the Moon is Illuminated
Dec 18
Waxing Crescent
Dec 19
First Quarter
Dec 28
Full
Jan 4
Last Quarter
Jan 11
New

Hourly Weather History & Observations

Time (CST) Temp. Windchill Dew Point Humidity Pressure Visibility Wind Dir Wind Speed Gust Speed Precip Events Conditions
12:15 AM 30.6 °F 23.8 °F 28.4 °F 92% 29.67 in 7.0 mi SSE 6.9 mph - N/A   Overcast
12:35 AM 30.2 °F 24.3 °F 28.4 °F 93% 29.66 in 7.0 mi SSE 5.8 mph - N/A   Overcast
12:55 AM 30.2 °F 22.6 °F 28.4 °F 93% 29.65 in 7.0 mi SE 8.1 mph - N/A   Overcast
1:15 AM 30.2 °F 23.4 °F 28.4 °F 93% 29.64 in 7.0 mi SE 6.9 mph - N/A   Overcast
1:35 AM 30.0 °F 21.7 °F 28.4 °F 94% 29.63 in 7.0 mi ESE 9.2 mph - N/A   Overcast
1:55 AM 29.8 °F 20.3 °F 28.2 °F 94% 29.61 in 7.0 mi ESE 11.5 mph - N/A   Overcast
2:15 AM 30.0 °F 20.0 °F 28.6 °F 94% 29.60 in 7.0 mi ESE 12.7 mph - N/A   Overcast
2:35 AM 30.0 °F 21.1 °F 28.9 °F 96% 29.59 in 5.0 mi ESE 10.4 mph - N/A   Overcast
2:55 AM 30.2 °F 19.8 °F 29.3 °F 96% 29.59 in 4.0 mi ESE 13.8 mph - N/A   Overcast
3:15 AM 30.7 °F 23.3 °F 29.8 °F 96% 29.59 in 4.0 mi ESE 8.1 mph - N/A   Overcast
3:35 AM 30.9 °F 22.8 °F 29.8 °F 96% 29.57 in 3.0 mi ESE 9.2 mph - N/A   Overcast
3:55 AM 30.2 °F 20.2 °F 29.3 °F 96% 29.54 in 3.0 mi East 12.7 mph - N/A   Scattered Clouds
4:15 AM 30.2 °F 21.9 °F 29.3 °F 96% 29.54 in 3.0 mi ESE 9.2 mph - N/A   Scattered Clouds
4:35 AM 30.6 °F 21.2 °F 29.7 °F 96% 29.53 in 3.0 mi ESE 11.5 mph - N/A   Overcast
4:55 AM 30.7 °F 22.0 °F 29.7 °F 96% 29.52 in 4.0 mi ESE 10.4 mph - N/A   Overcast
5:15 AM 30.7 °F 22.0 °F 29.8 °F 96% 29.51 in 4.0 mi ESE 10.4 mph - N/A   Overcast
5:35 AM 30.9 °F 22.8 °F 30.0 °F 96% 29.50 in 4.0 mi ESE 9.2 mph - N/A   Overcast
6:15 AM 31.1 °F 25.4 °F 30.2 °F 96% 29.50 in 4.0 mi ESE 5.8 mph - N/A   Overcast
6:35 AM 31.1 °F 24.5 °F 30.2 °F 96% 29.48 in 3.0 mi East 6.9 mph - N/A   Overcast
6:55 AM 30.2 °F 26.7 °F 29.7 °F 98% 29.50 in 3.0 mi East 3.5 mph - N/A   Overcast
7:15 AM 29.7 °F 24.7 °F 29.1 °F 98% 29.48 in 2.5 mi East 4.6 mph - N/A   Overcast
7:35 AM 29.1 °F 23.0 °F 28.6 °F 98% 29.47 in 2.5 mi East 5.8 mph - N/A   Scattered Clouds
7:55 AM 28.9 °F - 28.6 °F 99% 29.48 in 1.8 mi Calm Calm - N/A   Mostly Cloudy
8:15 AM 28.6 °F 22.4 °F 28.2 °F 99% 29.45 in 1.5 mi ESE 5.8 mph - N/A   Scattered Clouds
8:35 AM 29.7 °F 26.1 °F 29.5 °F 99% 29.47 in 1.8 mi SE 3.5 mph - N/A   Mist
8:55 AM 31.5 °F - 31.1 °F 99% 29.47 in 2.0 mi Calm Calm - N/A   Clear
9:15 AM 32.0 °F - 30.9 °F 96% 29.47 in 3.0 mi Calm Calm - N/A   Clear
9:35 AM 32.2 °F 28.9 °F 31.3 °F 96% 29.49 in 3.0 mi WNW 3.5 mph - N/A   Scattered Clouds
9:55 AM 32.4 °F 26.9 °F 31.1 °F 95% 29.51 in 3.0 mi WNW 5.8 mph - N/A   Mostly Cloudy
10:15 AM 32.2 °F 27.7 °F 31.1 °F 96% 29.52 in 2.5 mi WNW 4.6 mph - N/A   Overcast
10:35 AM 32.9 °F 24.7 °F 31.5 °F 94% 29.54 in 3.0 mi WNW 10.4 mph - N/A   Overcast
10:55 AM 32.9 °F 24.7 °F 31.6 °F 95% 29.56 in 3.0 mi WNW 10.4 mph - N/A   Overcast
11:15 AM 33.1 °F 24.4 °F 31.8 °F 95% 29.57 in 3.0 mi WNW 11.5 mph - N/A   Overcast
11:35 AM 33.1 °F 23.4 °F 31.8 °F 95% 29.58 in 2.5 mi WNW 13.8 mph - N/A   Overcast
11:55 AM 32.9 °F 24.1 °F 32.0 °F 96% 29.59 in 1.8 mi WNW 11.5 mph 20.7 mph N/A   Overcast
12:15 PM 32.9 °F 23.7 °F 32.0 °F 96% 29.59 in 2.0 mi WNW 12.7 mph - N/A   Overcast
12:35 PM 32.9 °F 22.8 °F 31.8 °F 96% 29.60 in 4.0 mi NW 15.0 mph 25.3 mph N/A   Overcast
12:55 PM 33.1 °F 23.0 °F 31.5 °F 94% 29.62 in 7.0 mi WNW 15.0 mph - N/A   Overcast
1:15 PM 33.3 °F 23.2 °F 31.3 °F 92% 29.63 in 7.0 mi NW 15.0 mph 21.9 mph N/A   Overcast
1:35 PM 33.3 °F 23.7 °F 30.9 °F 91% 29.63 in 7.0 mi NW 13.8 mph 21.9 mph N/A   Overcast
1:55 PM 33.1 °F 23.9 °F 31.1 °F 92% 29.66 in 7.0 mi NW 12.7 mph 17.3 mph N/A   Overcast
2:15 PM 33.1 °F 24.4 °F 30.9 °F 92% 29.67 in 7.0 mi WNW 11.5 mph - N/A   Overcast
2:35 PM 32.9 °F 24.1 °F 30.7 °F 92% 29.68 in 7.0 mi NW 11.5 mph - N/A   Overcast
2:55 PM 33.1 °F 23.4 °F 30.7 °F 91% 29.68 in 7.0 mi NW 13.8 mph - N/A   Overcast
3:15 PM 33.1 °F 25.5 °F 30.2 °F 89% 29.69 in 7.0 mi NW 9.2 mph - N/A   Overcast
3:35 PM 33.1 °F 24.9 °F 30.2 °F 89% 29.72 in 7.0 mi NW 10.4 mph - N/A   Overcast
3:55 PM 33.1 °F 25.5 °F 30.0 °F 89% 29.73 in 7.0 mi NW 9.2 mph - N/A   Overcast
4:15 PM 33.1 °F 25.5 °F 30.2 °F 89% 29.74 in 7.0 mi WNW 9.2 mph - N/A   Overcast
4:35 PM 32.9 °F 25.3 °F 30.2 °F 90% 29.74 in 7.0 mi NW 9.2 mph - N/A   Overcast
4:55 PM 32.9 °F 27.5 °F 30.0 °F 89% 29.76 in 10.0 mi WNW 5.8 mph - N/A   Overcast
5:15 PM 32.9 °F 26.7 °F 30.2 °F 90% 29.77 in 10.0 mi WNW 6.9 mph - N/A   Overcast
5:35 PM 32.9 °F 27.5 °F 30.2 °F 90% 29.78 in 10.0 mi West 5.8 mph - N/A   Overcast
5:55 PM 32.9 °F - 30.6 °F 91% 29.79 in 10.0 mi Calm Calm - N/A   Overcast
6:15 PM 32.9 °F 28.5 °F 30.9 °F 92% 29.81 in 10.0 mi West 4.6 mph - N/A   Overcast
6:35 PM 32.9 °F 28.5 °F 30.7 °F 92% 29.81 in 10.0 mi WNW 4.6 mph - N/A   Overcast
6:55 PM 33.1 °F 27.7 °F 30.9 °F 92% 29.82 in 10.0 mi WNW 5.8 mph - N/A   Overcast
7:15 PM 33.1 °F 27.7 °F 30.9 °F 92% 29.83 in 7.0 mi West 5.8 mph - N/A   Overcast
7:35 PM 33.1 °F 25.5 °F 30.6 °F 90% 29.85 in 7.0 mi West 9.2 mph - N/A   Overcast
7:55 PM 33.3 °F 27.9 °F 30.4 °F 89% 29.85 in 10.0 mi West 5.8 mph - N/A   Overcast
8:15 PM 32.9 °F 26.7 °F 30.2 °F 90% 29.84 in 7.0 mi WNW 6.9 mph - N/A   Overcast
8:35 PM 32.0 °F - 30.0 °F 92% 29.84 in 7.0 mi Calm Calm - N/A   Scattered Clouds
8:55 PM 31.1 °F 27.7 °F 29.3 °F 93% 29.83 in 7.0 mi NNW 3.5 mph - N/A   Clear
9:15 PM 30.7 °F - 28.9 °F 93% 29.84 in 7.0 mi Calm Calm - N/A   Clear
9:35 PM 29.5 °F - 28.9 °F 98% 29.85 in 5.0 mi Calm Calm - N/A   Clear
9:55 PM 29.3 °F - 28.8 °F 98% 29.85 in 4.0 mi Calm Calm - N/A   Clear
10:15 PM 30.0 °F - 29.3 °F 97% 29.86 in 4.0 mi Calm Calm - N/A   Clear
10:35 PM 29.1 °F - 28.8 °F 99% 29.86 in 4.0 mi Calm Calm - N/A   Clear
10:55 PM 27.5 °F - 27.1 °F 99% 29.85 in 3.0 mi Calm Calm - N/A   Clear
11:15 PM 28.0 °F - 27.5 °F 98% 29.86 in 2.5 mi Calm Calm - N/A   Clear
11:35 PM 27.7 °F - 27.5 °F 99% 29.85 in 2.5 mi Calm Calm - N/A   Clear
11:55 PM 27.0 °F 23.0 °F 26.8 °F 99% 29.86 in 2.0 mi South 3.5 mph - N/A   Clear